Regional Weather Roundup
Issued by NWS

Home | Current Version | Previous Version | Graphics & Text | Print | Product List | Glossary On
Versions: 1 2 3 4 5 6 7 8 9 10 11 12 13 14 15 16 17 18 19 20 21 22 23 24 25 26 27 28 29 30 31 32 33 34 35 36 37 38 39 40 41 42 43 44 45 46 47 48 49 50
000
ASUS43 KLSX 270110
RWRMO

WEATHER SUMMARY FOR MISSOURI
NATIONAL WEATHER SERVICE SPRINGFIELD MO
800 PM CDT MON SEP 26 2016

NOTE: "FAIR" INDICATES FEW OR NO CLOUDS BELOW 12,000 FEET WITH NO
       SIGNIFICANT WEATHER AND/OR OBSTRUCTIONS TO VISIBILITY.
       CURRENT SKY AND/OR WEATHER CONDITIONS ARE NOT AVAILABLE FOR
       CHILLICOTHE AND FARMINGTON.

MOZ001>031-035>038-043-044-053-054-270200-
...NORTHERN AND WESTERN MISSOURI...

CITY           SKY/WX    TMP DP  RH WIND       PRES   REMARKS
KANSAS CTY INT CLEAR     62  46  55 SW7       30.12S
KANSAS C DTWN  CLEAR     67  46  47 SW7       30.12S
LEE`S SUMMIT   CLEAR     63  48  58 SW5       30.13F
ST JOSEPH      CLEAR     62  52  69 SW6       30.10S
CHILLICOTHE      N/A     59  51  75 CALM      30.11S
KIRKSVILLE     CLEAR     61  44  53 SW5       30.09S

$$
MOZ066>068-077>081-088>096-101>105-270200-
...SOUTHWEST MISSOURI...

CITY           SKY/WX    TMP DP  RH WIND       PRES   REMARKS
SPRINGFIELD    CLEAR     58  45  62 CALM      30.15S
JOPLIN         CLEAR     59  44  57 CALM      30.16F
BRANSON        PTCLDY    57  48  72 CALM      30.16S

$$
MOZ032>034-039>042-045>050-055>058-069>072-270200-
...CENTRAL MISSOURI...

CITY           SKY/WX    TMP DP  RH WIND       PRES   REMARKS
COLUMBIA       CLEAR     62  44  51 W6        30.12R
JEFFERSON CITY CLEAR     60  48  64 CALM      30.11S
ROLLA          CLEAR     56  45  66 W5        30.12S
SEDALIA        CLEAR     64  41  42 W5        30.14S
WHITEMAN AFB   CLEAR     59  47  66 S6        30.12F
OSAGE BEACH    CLEAR     55  50  83 CALM      30.15R

$$
MOZ051-052-059>065-270200-
...EAST CENTRAL MISSOURI...

CITY           SKY/WX    TMP DP  RH WIND       PRES   REMARKS
ST LOUIS INTL  CLEAR     66  41  40 W6        30.10R
SPIRIT OF STL  CLEAR     57  51  80 W3        30.09R
ST CHARLES     CLEAR     59  51  75 CALM      30.08S

$$
MOZ072>076-082>087-097>100-106>115-270200-
...SOUTH CENTRAL AND SOUTHEAST MISSOURI...

CITY           SKY/WX    TMP DP  RH WIND       PRES   REMARKS
CAPE GIRARDEAU NOT AVBL
FARMINGTON     CLEAR     58  50  75 CALM      30.13R
POPLAR BLUFF   CLEAR     62  56  80 CALM      30.11R
WEST PLAINS    CLEAR     57  48  72 NW3       30.16S

$$




USA.gov is the U.S. government's official web portal to all federal, state and local government web resources and services.